Location: Eaton Estates
(41.3089°N, 82.0057°W)
Time: 09:46:49
(UTC+00:00)

USA 308 - Pass Details

Date: 30 October 2021
Orbit: 562 x 573 km, 54.0° (Epoch: 26 November)

Event Time Altitude Azimuth Distance (km) Brightness Sun altitude
Exits shadow 09:47:33 20° 5° (N) 1,314 4.8 -24.9°
Drops below altitude 10° 09:49:47 10° 33° (NNE) 1,882 6.0 -24.4°
Sets 09:52:19 0° 47° (NE) 2,755 7.1 -24.0°
